Showing default

GHGSAT-C7, 56209

Orbit data source: Space-Track

GHGSAT-C7, 56209 is a payload satellite owned by GHG (CA) in SSO that was launched on Sat, 15 Apr 2023 UTC via an FALCON 9 launch vehicle from the Air Force Western Test Range (AFWTR). Payload-class satellites include a variety of spacecraft equipped with specific instruments for various scientific and technological missions. These include communications satellites like Starlink; space stations such as the ISS; scientific satellites like the Hubble; Earth observation satellites from companies like Planet Labs, Umbra, and HawkEye 360; GPS; miniature CubeSats for education and research; and military/defense satellites.

Loading next visibility...
Identifier
56209, 2023-054AH
Orbit
SSO
Last TLE update
8 hours ago
Origin
Manufacturer
UTIAS-SFL
Mission
Operational Commercial Science
Bus & Motor
NEMO-V1, Unknown motor
Mass
15 kg wet, 15 kg dry
Launch date (UTC)
2023-04-15 (2 years ago)
Launch vehicle
FALCON 9
Launch site
Air Force Western Test Range (AFWTR)
Object type
Payload
Rocket body
Debris
Shape & HBR
Box, 0.4 m
Radar Cross Section
0.100 m², Medium (>0.1 m² and < 1m²)

Expand to show TLE details & history

TLE from 8 hours ago
0 GHGSAT-C7
1 56209U 23054AH  25128.95146821  .00009980  00000-0  24833-3 0  9999
2 56209  97.3323  29.5255 0011362  69.6373 290.6093 15.40405905115982
Epoch: 2025-05-08T22:50Z
Definitive object data (Epoch: 2025-05-08T22:50:06.853Z)
Latitude
-0.00001°
Longitude
179.98235°
Altitude
445.309 km
Speed
7.646 km/s
True Right ascension
01h 58m 06s
True Declination
0° 00' 00"
Sunlit
Object was in daylight at TLE epoch
Visualization TLE readout
Latitude
-39.19954°
Longitude
-173.70869°
Altitude
462.309 km
Speed
7.633 km/s
Apparent Right ascension
02h 29m 37s
Apparent Declination
-39° 22' 28"
Sunlit
Object is in daylight
Visualization observer readout
Local Sidereal Time
14:36:25
Azimuth
68.077° E
Elevation
-88.583°
Doppler factor
1
Orbital elements
Apogee altitude
449.595 km
Perigee altitude
434.097 km
Semi-major axis
6,819.983 km
Eccentricity
0.0011362
Inclination
97.3323°
RAAN
29.5255°
Arg. of periapsis
69.6373°
True anomaly
290.48737°
Mean anomaly
290.6093°
Eccentric anomaly
290.54834°
Mean motion
3.85361 °/min
BSTAR
0.00024833
Orbital period
93.42 mins
Loading maneuver chart data...
Loading SW <> Apogee altitude chart data...
Loading historical data...
Loading historical data...
Loading historical data...
Loading historical data...
Loading historical data...
Loading historical data...
Loading historical data...

GHGSAT-C7 Visibility forecast

Observer location: undefined°, undefined°

Span
Click to sort rows by Start time (UTC) header in descending order
Start Az.
Max El. time (UTC)
Max El. Az.
Max El.
End time (UTC)
End Az.
4 mins2025-05-09 17:41:34.934Z202.531° SW2025-05-09 17:42:34.934Z240.169° WSW35.851°2025-05-09 17:45:34.934Z333.851° NNW
|